User: anonymous   Login
Location: Asheville, NC
(35.6000°N, 82.5500°W)
Time: 18:59:49
(UTC-04:00)
Language:

XW-2F - Orbit

View from above orbital plane
View from above orbital plane
View from above satellite
View from above satellite

Ground track
Ground track

The orbit data is extracted from the following two-line orbital elements,

1 40910U 15049M   18196.52465811 +.00000831 +00000-0 +45884-4 0  9995
2 40910 097.4573 200.5574 0013406 287.1601 072.8164 15.16603511155876
Epoch (UTC): 15 July 2018 12:35:30
Eccentricity: 0.0013406
inclination: 97.4573°
perigee height: 507 km
apogee height: 525 km
right ascension of ascending node: 200.5574°
argument of perigee: 287.1601°
revolutions per day: 15.16603511
mean anomaly at epoch: 72.8164°
orbit number at epoch: 15587

The dashed part of the orbit path shows where the satellite is in the earth's shadow,  

DLR